Preview of NWS' New Version of Forecast
This preview is not operational and should not be used for support decisions.

Regional Weather Roundup (RWR)

Issued by Gray - Portland, ME (GYX)

                            
000
ASUS41 KGYX 221010
RWRGYX
WEATHER ROUNDUP FOR MAINE AND NEW HAMPSHIRE
NATIONAL WEATHER SERVICE GRAY ME
600 AM EDT WED MAY 22 2019

MEZ002-005-006-010-012-015-018-020-021-024-026-027-029-221100-
MAINE
  
CITY           SKY/WX    TMP DP  RH WIND       PRES   REMARKS
PORTLAND       FAIR      49  33  54 NW12      30.08R                  
SANFORD        FAIR      47  35  63 N6        30.09R                  
BAR HARBOR     FAIR      45  36  70 NW10      30.01R                  
WISCASSET      FAIR      47  34  60 VRB3      30.07R                  
ROCKLAND       FAIR      46  36  68 NW7G17    30.03R                  
FRYEBURG       FAIR      46  34  62 CALM      30.09R                  
LEWISTONAUBURN FAIR      46  35  65 NW12      30.08                   
AUGUSTA        FAIR      46  35  65 NW16G24   30.06R                  
WATERVILLE     MOCLDY    44  35  70 N6        30.03R                  
BANGOR         FAIR      45  36  70 NW12G21   30.03R                  
GREENVILLE       N/A     41  34  76 NW15G25   30.00R                  
MILLINOCKET    CLOUDY    46  35  65 NW8G17    30.02R                  
HOULTON        CLOUDY    42  37  82 N12       29.97R                  
PRESQUE ISLE   CLOUDY    43  38  82 N16       30.00R                  
FRENCHVILLE    CLOUDY    43  37  79 N15G23    29.99R                  
CARIBOU        CLOUDY    43  38  82 N14G20    29.98R                  
$$

NHZ002-005-008-009-011-012-014-221100-
NEW HAMPSHIRE
  
CITY           SKY/WX    TMP DP  RH WIND       PRES   REMARKS
PORTSMOUTH     PTCLDY    49  34  56 NW9       30.07R                  
ROCHESTER      FAIR      47  33  58 N7        30.08R                  
NASHUA         FAIR      52  38  58 NW10      30.11R                  
MANCHESTER     FAIR      53  36  52 N16G22    30.09R                  
CONCORD        FAIR      50  35  56 NW20G25   30.10R                  
LACONIA        FAIR      49  33  54 NW7       30.11R                  
PLYMOUTH       FAIR      48  33  56 NW12      30.12R                  
BERLIN         FAIR      42  33  70 N5        30.11R                  
WHITEFIELD     FAIR      42  33  70 NW7       30.14R                  
JAFFREY        FAIR      49  35  58 NW5       30.11R                  
KEENE            N/A     38  37  97 MISG        N/A                   
LEBANON        FAIR      40  35  83 N3        30.14R                  
MT WASHINGTON  FOG       21  21 100 NW59        N/A  VSB 1/16WCI  -2  
$$

VTZ005-007-008-221100-
VERMONT
  
CITY           SKY/WX    TMP DP  RH WIND       PRES   REMARKS
ST JOHNSBURY     N/A     44  38  79 MISG      30.14R                  
MONTPELIER     FAIR      44  36  73 NW12      30.19R                  
BURLINGTON     FAIR      46  40  79 N3        30.20R                  
$$

MAZ007-012-024-CTZ003-RIZ002-NYZ038-NYZ072-221100-
SOUTHERN NEW ENGLAND AND NY
  
CITY           SKY/WX    TMP DP  RH WIND       PRES   REMARKS
BOSTON         FAIR      56  37  49 NW16G25   30.09R                  
WORCESTER      FAIR      48  36  63 NW14G20   30.10R                  
NANTUCKET      FAIR      55  40  56 NW13      30.05R                  
PROVIDENCE     FAIR      52  36  54 NW6       30.10R                  
HARTFORD       FAIR      49  36  61 N5        30.13R                  
ALBANY         FAIR      45  36  70 NW5       30.19R                  
NEW YORK CITY  FAIR      58  39  49 NW9       30.17R                  
$$

ANZ081-ANZ082-ANZ150-NHZ014-MEZ023>029-221100-
COASTAL MARINE OBSERVATIONS
  
STATION/POSITION TIME  TEMP    WIND        PRES    WAVE
                       AIR SEA DIR/SP/G            HT/PER
                 (UTC) (F)     (DEG/KT/KT) (MB)    (FT/S)
ISLE OF SHOALS   0900   51     350/ 15/ 18 1016.9R
JEFFREYS LEDGE   0938      45                N/A     3/ 4
CASHES LEDGE BUO 0950   48 46              1016.2    4/ 5
GEORGES BANK BUO 0950   47 45  340/ 14/ 17 1014.3R   7/ 8
$$

.............KEY..............
   WCI - WIND CHILL
   TC  - TEMPERATURE IN CELSIUS
   VSB - VISIBILITY IN MILES
   HX  - HEAT INDEX
   FAIR- INDICATES FEW OR NO CLOUDS BELOW 12,000 FT, WITH NO 
         SIGNIFICANT WEATHER AND/OR OBSTRUCTIONS TO VISIBILITY.